This is the latest recevied weather packets stored in our database for station/object KD8PH. If no packets are shown the sender has not sent any weather packets the latest 1 day(s).
| Time | Temp. | Humidity | Pressure | Rain* | Wind** | Luminosity | Snow |
|---|---|---|---|---|---|---|---|
| 1778012135 | 23.33° C | 53% | 1010 hPa | 0 mm | 5.36 m/s, 225° | - | - |
| 1778011534 | 23.33° C | 51% | 1009.9 hPa | 0 mm | 4.02 m/s, 225° | - | - |
| 1778010938 | 23.89° C | 52% | 1010.6 hPa | 0 mm | 2.24 m/s, 248° | - | - |
| 1778010336 | 24.44° C | 48% | 1011 hPa | 0 mm | 2.68 m/s, 248° | - | - |
| 1778009743 | 23.89° C | 48% | 1011 hPa | 0 mm | 1.79 m/s, 248° | - | - |
| 1778009142 | 23.89° C | 45% | 1011.3 hPa | 0 mm | 4.47 m/s, 225° | - | - |
| 1778008546 | 24.44° C | 47% | 1011.4 hPa | 0 mm | 1.34 m/s, 315° | - | - |
| 1778007950 | 23.89° C | 45% | 1011.5 hPa | 0 mm | 2.24 m/s, 248° | - | - |
| 1778007343 | 23.33° C | 46% | 1011.9 hPa | 0 mm | 2.68 m/s, 225° | - | - |
| 1778006746 | 23.33° C | 44% | 1011.9 hPa | 0 mm | 2.68 m/s, 225° | - | - |
| 1778006139 | 22.78° C | 50% | 1011.9 hPa | 0 mm | 4.47 m/s, 225° | - | - |
| 1778005540 | 23.33° C | 47% | 1011.8 hPa | 0 mm | 4.02 m/s, 225° | - | - |
| 1778004940 | 23.33° C | 47% | 1011.9 hPa | 0 mm | 4.47 m/s, 225° | - | - |
| 1778004334 | 23.33° C | 46% | 1012.1 hPa | 0 mm | 4.02 m/s, 225° | - | - |
| 1778003736 | 23.33° C | 47% | 1012.1 hPa | 0 mm | 2.24 m/s, 248° | - | - |
| 1778003153 | 22.78° C | 47% | 1012.2 hPa | 0 mm | 4.02 m/s, 225° | - | - |
| 1778002546 | 22.78° C | 44% | 1012.5 hPa | 0 mm | 4.02 m/s, 225° | - | - |
| 1778001947 | 23.33° C | 44% | 1012.6 hPa | 0 mm | 4.47 m/s, 225° | - | - |
| 1778001334 | 22.78° C | 44% | 1012.6 hPa | 0 mm | 4.02 m/s, 225° | - | - |
| 1778000739 | 22.78° C | 52% | 1012.5 hPa | 0 mm | 4.47 m/s, 225° | - | - |
| 1778000134 | 22.78° C | 52% | 1012.6 hPa | 0 mm | 2.24 m/s, 225° | - | - |
| 1777999547 | 22.22° C | 54% | 1012.8 hPa | 0 mm | 1.79 m/s, 225° | - | - |
| 1777998955 | 22.22° C | 56% | 1012.7 hPa | 0 mm | 2.68 m/s, 225° | - | - |
| 1777998344 | 21.67° C | 57% | 1012.8 hPa | 0 mm | 3.58 m/s, 225° | - | - |
| 1777997751 | 21.67° C | 56% | 1012.9 hPa | 0 mm | 1.79 m/s, 225° | - | - |
* Rain latest hour (hover to see other rain measurements)
** Current wind speed in m/s (hover to see current wind gust speed)